Regional Weather Roundup
Issued by NWS

Home | Current Version | Previous Version | Graphics & Text | Print | Product List | Glossary On
Versions: 1 2 3 4 5 6 7 8 9 10 11 12 13 14 15 16 17 18 19 20 21 22 23 24 25 26 27 28 29 30 31 32 33 34 35 36 37 38 39 40 41 42 43 44 45 46 47 48 49 50
143
ASUS44 KJAN 161603
RWRMS

MISSISSIPPI HOURLY WEATHER ROUNDUP
NATIONAL WEATHER SERVICE JACKSON MS
1100 AM CDT TUE SEP 16 2014

NOTE: "FAIR: INDICATES FEW OR NO CLOUDS BELOW 12,000 FEET WITH NO
SIGNIFICANT WEATHER AND/OR OBSTRUCTIONS TO VISIBILITY.

MSZ001>002-007>008-010>013-018>021-025>028-034>036-161700-
NORTHWEST MISSISSIPPI

CITY           SKY/WX    TMP DP  RH WIND       PRES   REMARKS
CLARKSDALE     FAIR      81  72  74 N3        30.11F
CLEVELAND      FAIR      82  71  68 E3        30.10F
GREENWOOD      PTSUNNY   80  68  66 NE5       30.11F
GREENVILLE     PTSUNNY   81  66  60 NE6       30.11S
GRENADA        FAIR      81  64  57 CALM      30.11F
OLIVE BRANCH   CLOUDY    70  70 100 NE6       30.13F FOG
OXFORD         FAIR      79  64  61 NE6       30.13F
TUNICA         PTSUNNY   77  68  73 N7        30.13S
$$

MSZ003>006-009-014>017-022>024-029>033-037>039-161700-
NORTHEAST MISSISSIPPI

CITY           SKY/WX    TMP DP  RH WIND       PRES   REMARKS
COLUMBUS AFB   MOSUNNY   81  68  64 VRB3      30.10F
CORINTH        FAIR      79  66  65 VRB7      30.11F
GOLDN TRIANGLE PTSUNNY   81  68  65 N5        30.12S
STARKVILLE     FAIR      79  66  65 N5        30.10F
TUPELO         SUNNY     82  64  54 E6        30.10F
$$

MSZ040-058-161700-
CENTRAL MISSISSIPPI

CITY           SKY/WX    TMP DP  RH WIND       PRES   REMARKS
JACKSON INTL   PTSUNNY   84  68  58 N6        30.09F
JACKSON HAWKNS PTSUNNY   84  68  58 NE5       30.10F
MERIDIAN KEY   MOSUNNY   86  67  52 N9        30.08F
MERIDIAN NAS   PTSUNNY   85  68  56 NE10      30.09F
RAYMOND        FAIR      82  77  83 CALM      30.10F HX  91
VICKSBURG      MOSUNNY   83  69  62 NE5       30.10F
$$

MSZ059>079-161700-
SOUTH MISSISSIPPI

CITY           SKY/WX    TMP DP  RH WIND       PRES   REMARKS
BROOKHAVEN     FAIR      82  75  78 CALM      30.11F
HATTIESBURG    MOSUNNY   87  73  62 N6        30.08S HX  94
MCCOMB         CLOUDY    85  71  63 N5        30.09S HX  90
NATCHEZ        MOSUNNY   82  73  74 E6        30.10F
PINE BELT      MOSUNNY   88  73  62 NE5       30.09F HX  96
$$

MSZ080>082-161700-
COASTAL MISSISSIPPI

CITY           SKY/WX    TMP DP  RH WIND       PRES   REMARKS
BILOXI         SUNNY     87  73  64 VRB2      30.07R HX  94
PASCAGOULA     SUNNY     87  75  67 NE5       30.06S HX  96
GULFPORT       MOSUNNY   87  73  62 CALM      30.06R HX  94
$$



USA.gov is the U.S. government's official web portal to all federal, state and local government web resources and services.